Simultaneous Nadir Overpasses (SNOs) Predictions

Prediction of SNOs between METOP-B and TERRA Satellite Orbit:

Table of predicted SNOs for the next 14.0 days since TLE Epoch: 9/30/2023
Index Date (METOP-B) Time (METOP-B) Lat,Lon (METOP-B) SZA (METOP-B ) Date (TERRA) Time (TERRA) Lat,Lon (TERRA) SZA (TERRA ) Distance(km) Time Diff (sec)
1 10/02/2023 05:36:21 80.63, 124.82 85.45 10/02/2023 05:37:23 80.63, 124.78 85.47 0.99 62
2 10/02/2023 06:26:59 -80.70, -66.81 94.39 10/02/2023 06:26:43 -80.70, -66.78 94.39 0.54 16
3 10/04/2023 21:47:56 80.69,-117.27 86.62 10/04/2023 21:47:57 80.68,-117.33 86.61 1.30 1
4 10/07/2023 13:08:55 -80.64,-168.24 92.47 10/07/2023 13:09:12 -80.65,-168.08 92.44 3.05 17
5 10/07/2023 13:59:31 80.74, 0.57 87.76 10/07/2023 13:58:30 80.74, 0.65 87.75 1.55 61
6 10/10/2023 04:29:49 80.66, 141.78 88.59 10/10/2023 04:30:22 80.66, 141.76 88.60 0.40 33
7 10/10/2023 05:20:28 -80.71, -50.13 91.29 10/10/2023 05:19:43 -80.72, -49.97 91.29 3.06 45
8 10/12/2023 19:50:46 -80.65, 91.36 90.43 10/12/2023 19:51:35 -80.65, 91.28 90.42 1.56 49



Historial Predications of SNOs between METOP-B and TERRA
